{"data":{"norad_id":64185,"intl_designator":"2025-113R","name":"STARLINK-34063","alt_names":[],"object_type":"PAYLOAD","status":"ACTIVE","operator":null,"country":"US","launch_date":"2025-05-28","launch_site_code":"AFETR","launch_vehicle":null,"mission":null,"orbit_class":"UNKNOWN","rcs_meters":null,"size_class":null,"mass_kg":null,"dimensions":null,"purposes":["comms"],"wikipedia_slug":null,"has_3d_model":false,"image_url":null,"decayed_at":null,"tle_current":{"epoch":"2026-09-20T16:45:22.804704Z","epoch_age_seconds":123310,"freshness":"FRESH","line1":"1 64185U 25113R   26263.69818061  .00009920  00000+0  33087-3 0  9997","line2":"2 64185  53.1560 263.7879 0001056  83.2950 276.8172 15.31714314 74944","mean_motion":15.31714314,"eccentricity":0.0001056,"inclination_deg":53.156,"raan_deg":263.7879,"arg_perigee_deg":83.295,"mean_anomaly_deg":276.8172,"bstar":0.00033087,"rev_number":7494,"period_min":94.012309399885,"perigee_km":469.97408936392,"apogee_km":471.42056317363,"semimajor_km":6848.8343262688,"source":"CELESTRAK","updated_at":"2026-09-21T09:00:35.245917Z"}}}